Flag for Germany Weather past 2 weeks in Westerstede, Lower Saxony, Germany

Now
50 °F

Broken clouds.


Feels Like: 47 °F
Forecast: 38 / 58 °F
Wind: 7 mph from South

Location: Wittmundhaven

Current Time: Apr 19, 2015 at 12:03:56 PM

Latest Report: Apr 19, 2015 at 11:20 AM


Visibility: N/A

Pressure: 30.21 "Hg

Humidity: 62%

Dew point: 37 °F

Location of WesterstedeLocation

Historic Weather in Westerstede — Graph

°F

Westerstede temperature yesterday

Maximum temperature yesterday: 54 °F (at 2:20 PM)
Minimum temperature yesterday: 36 °F (at 6:20 AM)
Average temperature yesterday: 44 °F

Past Weeks' High & Low Weather Summary

 TemperatureHumidityPressure
High66 °F (Apr 10, 4:20 PM)100% (Apr 5, 3:20 AM)30.57 "Hg (Apr 5, 3:20 AM)
Low28 °F (Apr 5, 7:20 AM)32% (Apr 5, 4:20 PM)29.89 "Hg (Apr 11, 6:20 AM)
Average45 °F77%30.25 "Hg
* Reported Apr 4 10:20 AM — Apr 19 10:20 AM, Westerstede, Weather by CustomWeather, © 2015

Note: Actual official high and low records may vary slightly from our data, if they occured in-between our weather recording intervals... More about our weather records

Advertising

Westerstede weather history for previous 24 hours

 ConditionsComfort  
Time TempWeatherWind HumidityBarometerVisibility
10:20 AM
Sun, Apr 19
48 °FBroken clouds.7 mph71%30.18 "HgN/A
9:20 AM46 °FPartly sunny.8 mph82%30.18 "HgN/A
8:20 AM43 °FPartly sunny.6 mph87%30.18 "HgN/A
7:20 AM41 °FPassing clouds.6 mph93%30.15 "HgN/A
6:20 AM41 °FPartly cloudy.7 mph87%30.15 "HgN/A
5:20 AM41 °FPassing clouds.7 mph87%30.18 "HgN/A
4:20 AM43 °FPassing clouds.7 mph81%30.18 "HgN/A
3:20 AM41 °FPassing clouds.5 mph81%30.18 "HgN/A
2:20 AM41 °FPassing clouds.6 mph81%30.21 "HgN/A
1:20 AM43 °FPassing clouds.7 mph76%30.24 "HgN/A
12:20 AM43 °FPassing clouds.7 mph76%30.27 "HgN/A
11:20 PM
Sat, Apr 18
43 °FPassing clouds.9 mph76%30.27 "HgN/A
10:20 PM43 °FPassing clouds.10 mph76%30.30 "HgN/A
9:20 PM41 °FPartly sunny.7 mph81%30.30 "HgN/A
8:20 PM43 °FScattered clouds.12 mph76%30.30 "HgN/A
7:20 PM45 °FBroken clouds.9 mph76%30.30 "HgN/A
6:20 PM46 °FScattered clouds.12 mph76%30.33 "HgN/A
5:20 PM48 °FPassing clouds.14 mph71%30.33 "HgN/A
4:20 PM50 °FPassing clouds.14 mph67%30.36 "HgN/A
3:20 PM52 °FPassing clouds.12 mph62%30.36 "HgN/A
2:20 PM54 °FPassing clouds.8 mph51%30.36 "HgN/A
1:20 PM52 °FPassing clouds.8 mph58%30.36 "HgN/A
12:20 PM52 °FPassing clouds.8 mph62%30.39 "HgN/A
Weather by CustomWeather, © 2015

See weather overviewHow to use our weather pages